[[{"header":{"parameterUnit":"m.s-1","parameterCategory":1,"la1":30.2991,"la2":30.254,"lo1":-89.0895,"lo2":-89.0444,"dy":0.0017,"dx":0.0017,"nx":28,"ny":28,"refTime":"2023-03-20T15:00:00:Z","depth":0,"parameterNumber":2,"parameterNumberName":"U-component_of_WINDS"},"data":[0,0,0,0,0,0,0,0,0,0,0,0,0,0,0,0,0,0,0,0,0,0,0,0,0,0,0,0,0,0,0,0,0,0,0,0,0,0,0,0,0,0,0,0,0,0,0,0,0,0,0,0,0,0,0,0,0,0,-2.9124,-2.9125,0,-2.9225,-2.9226,-2.9227,-2.9122,-2.9118,-2.9114,-2.911,-2.9215,-2.9222,-2.9228,0,0,0,0,0,0,0,0,0,0,0,0,0,-2.8839,-2.8845,-2.9124,-2.9125,-2.9126,-2.9225,-2.9226,-2.9228,-2.9122,-2.9117,-2.9112,-2.9108,-2.9213,-2.9221,-2.9229,0,0,0,0,0,0,0,0,0,0,0,0,0,-2.8954,-2.8847,-2.9123,-2.9086,-2.9083,-2.9225,-2.9226,-2.9228,-2.9124,-2.9117,-2.9111,-2.9105,-2.921,-2.922,-2.923,-2.9414,0,0,-2.926,-2.9265,0,0,0,0,0,0,0,0,-2.8947,-2.8964,-2.909,-2.9088,-2.9086,-2.9154,-2.9164,-2.9291,-2.9125,-2.9108,-2.911,-2.9102,-2.92,-2.921,-2.9243,-2.9419,-2.9424,-2.9261,-2.9267,-2.9271,-2.9274,0,0,0,0,0,0,0,-2.894,-2.8959,-2.9164,-2.9092,-2.9089,-2.9063,-2.9073,-2.9188,-2.9188,-2.9109,-2.9102,-2.9115,-2.9198,-2.9234,-2.9245,-2.9425,-2.9261,-2.927,-2.9276,-2.928,-2.9757,-2.9763,0,0,0,0,0,0,-2.8936,-2.8953,-2.9161,-2.9167,-2.9,-2.9074,-2.9084,-2.9139,-2.9186,-2.9187,-2.912,-2.911,-2.922,-2.9233,-2.9248,-2.9467,-2.9271,-2.9281,-2.9286,-2.975,-2.9758,-2.9766,0,0,0,0,0,0,-2.893,-2.8955,-2.9156,-2.9058,-2.9082,-2.9085,-2.9147,-2.9144,-2.918,-2.9194,-2.9194,-2.9157,-2.9215,-2.9234,-2.9373,-2.9469,-2.9285,-2.9294,-2.9742,-2.9753,-2.9762,-2.9907,0,0,0,0,0,0,-2.8922,-2.8954,-2.9024,-2.9061,-2.9087,-2.9281,-2.9153,-2.915,-2.9197,-2.9184,-2.9229,-2.923,-2.9212,-2.9359,-2.9383,-2.948,-2.9302,-2.9734,-2.9747,-2.9759,-2.9894,-2.9921,-2.9944,0,0,0,0,0,-2.8912,-2.9062,-2.9028,-2.9054,-2.9176,-2.9287,-2.9302,-2.9278,-2.9205,-2.9276,-2.9285,-2.9229,-2.9454,-2.9374,-2.9401,-2.9502,-2.9728,-2.9743,-2.9758,-2.9883,-2.9916,-2.9943,0,0,0,0,0,0,-2.9038,-2.9066,-2.9029,-2.9194,-2.9239,-2.9269,-2.9357,-2.9314,-2.938,-2.9366,-2.9333,-2.9344,-2.9491,-2.951,-2.942,-2.9682,-2.9579,-2.96,-2.9665,-2.9696,-2.9721,-2.9714,-2.931,0,0,0,0,0,-2.9084,-2.9172,-2.9191,-2.9335,-2.9359,-2.9355,-2.9402,-2.9379,-2.9424,-2.9443,-2.9462,-2.9508,-2.9589,-2.9643,-2.9719,-2.9895,-2.9903,-2.9977,-3.0002,-3.0022,-3.0042,-3.0136,-3.0169,-2.9815,-2.9815,-2.9815,0,0,-2.9182,-2.9208,-2.9266,-2.9361,-2.9393,-2.9485,-2.9371,-2.9473,-2.9541,-2.9458,-2.9591,-2.9607,-2.9656,-2.9814,-2.9885,-2.9834,-3.0141,-3.0042,-3.0058,-3.0066,-3.0155,-3.0188,-3.0218,-2.9825,-2.9823,-2.9822,0,0,-2.9407,-2.9435,-2.9558,-2.9592,-2.9641,-2.9636,-2.9666,-2.9702,-2.9709,-2.9841,-2.9781,-2.986,-3.0001,-3.0038,-3.0075,-3.0312,-3.0263,-3.0337,-3.0469,-3.0562,-3.0589,-3.0614,-3.0699,-3.073,-3.0356,-3.0356,-3.0357,0,-2.9523,-2.9658,-2.9627,-2.9733,-2.9777,-2.9705,-2.9829,-2.9863,-2.9935,-2.9967,-2.9908,-3.0082,-3.0109,-3.0276,-3.0333,-3.0365,-3.0398,-3.0333,-3.0588,-3.0612,-3.0635,-3.0715,-3.0747,-3.0365,-3.0364,-3.0363,-3.0362,0,-2.9798,-2.9893,-2.9986,-3.0056,-3.011,-3.0225,-3.0211,-3.0269,-3.0241,-3.0242,-3.0378,-3.0408,-3.0488,-3.0525,-3.0499,-3.0688,-3.0654,-3.0593,-3.0489,-3.0678,-3.0753,-3.0784,-3.0378,-3.0375,-3.0372,-3.037,0,0,-3.0108,-3.0158,-3.0193,-3.0223,-3.0271,-3.0343,-3.0454,-3.0531,-3.0582,-3.0633,-3.0725,-3.0844,-3.0787,-3.0829,-3.0806,-3.0887,-3.1073,-3.0814,-3.0815,-3.0862,-3.1282,-3.133,-3.1366,-3.1039,-3.1045,-3.1049,-3.1278,0,-3.0335,-3.0528,-3.0502,-3.0687,-3.0774,-3.0705,-3.0801,-3.084,-3.0844,-3.0918,-3.0922,-3.1007,-3.0924,-3.095,-3.1026,-3.1034,-3.1157,-3.1017,-3.1125,-3.113,-3.1117,-3.1405,-3.1456,-3.1671,-3.1307,-3.1312,-3.1316,0,-3.0627,-3.0687,-3.0881,-3.0914,-3.0949,-3.1036,-3.1105,-3.1176,-3.1219,-3.1216,-3.1262,-3.1224,-3.1334,-3.1227,-3.1379,-3.1284,-3.1326,-3.1336,-3.1344,-3.1355,-3.1236,-3.1425,-3.1739,-3.1772,-3.1362,-3.1358,-3.1355,0,-3.0835,-3.0964,-3.1097,-3.1125,-3.1166,-3.1229,-3.1249,-3.1286,-3.1333,-3.1392,-3.1423,-3.1494,-3.1534,-3.159,-3.1572,-3.1495,-3.1728,-3.1619,-3.1729,-3.1729,-3.1783,-3.178,-3.2109,-3.1808,-3.1807,-3.1807,-3.1806,0,-3.1092,-3.1214,-3.1191,-3.1272,-3.1406,-3.1374,-3.1507,-3.1518,-3.1551,-3.1633,-3.1577,-3.1656,-3.1626,-3.1703,-3.1689,-3.1817,-3.1835,-3.1835,-3.1831,-3.1842,-3.1842,-3.1871,-3.1856,-3.1815,-3.1813,-3.1811,-3.181,0,-3.1349,-3.1338,-3.1477,-3.1504,-3.1514,-3.1611,-3.1634,-3.171,-3.1708,-3.1813,-3.1836,-3.1833,-3.192,-3.1907,-3.2004,-3.1994,-3.2154,-3.213,-3.214,-3.2135,-3.2246,-3.2236,-3.2607,-3.2654,-3.232,-3.2324,-3.2326,0,-3.1515,-3.1606,-3.1642,-3.1693,-3.1718,-3.18,-3.1848,-3.182,-3.1872,-3.1926,-3.1996,-3.2078,-3.2142,-3.2284,-3.2291,-3.2364,-3.2342,-3.2467,-3.2353,-3.2361,-3.2345,-3.2341,-3.235,-3.249,-3.2494,-3.2497,-3.25,0,-3.1811,-3.18,-3.1871,-3.1941,-3.1999,-3.2053,-3.2101,-3.2145,-3.2121,-3.2182,-3.227,-3.232,-3.2417,-3.2499,-3.2567,-3.2587,-3.2541,-3.2535,-3.2564,-3.2578,-3.258,-3.2581,-3.2203,-3.2527,-3.2525,-3.2523,-3.2521,-3.252,-3.2028,-3.2105,-3.2143,-3.2224,-3.2256,-3.2301,-3.2374,-3.2381,-3.2453,-3.2531,-3.2509,-3.2609,-3.2647,-3.2734,-3.2761,-3.2838,-3.2792,-3.2835,-3.2846,-3.2857,-3.2871,-3.2566,-3.285,-3.285,-3.2849,-3.2848,-3.2848,0,-3.2322,-3.2341,-3.2416,-3.2484,-3.2548,-3.2495,-3.2545,-3.2602,-3.269,-3.273,-3.2793,-3.2894,-3.2972,-3.2984,-3.3058,-3.3118,-3.3098,-3.3138,-3.3135,-3.314,-3.2908,-3.2875,-3.3153,-3.3153,-3.3153,-3.3153,-3.3153,-3.3153,-3.2482,-3.2611,-3.2605,-3.2749,-3.2767,-3.2865,-3.2897,-3.2939,-3.297,-3.3085,-3.3149,-3.3156,-3.3185,-3.326,-3.3329,-3.333,-3.3361,-3.341,-3.3404,-3.3187,-3.3156,-3.3127,-3.3097,-3.3417,-3.3417,-3.363,-3.3632,-3.3633]},{"header":{"parameterUnit":"m.s-1","parameterCategory":1,"la1":30.2991,"la2":30.254,"lo1":-89.0895,"lo2":-89.0444,"dy":0.0017,"dx":0.0017,"nx":28,"ny":28,"refTime":"2023-03-20T15:00:00:Z","depth":0,"parameterNumber":3,"parameterNumberName":"V-component_of_WINDS"},"data":[0,0,0,0,0,0,0,0,0,0,0,0,0,0,0,0,0,0,0,0,0,0,0,0,0,0,0,0,0,0,0,0,0,0,0,0,0,0,0,0,0,0,0,0,0,0,0,0,0,0,0,0,0,0,0,0,0,0,-5.5821,-5.5822,0,-5.5948,-5.5949,-5.595,-5.5871,-5.5868,-5.5864,-5.586,-5.5986,-5.5993,-5.6,0,0,0,0,0,0,0,0,0,0,0,0,0,-5.5505,-5.5511,-5.5821,-5.5822,-5.5824,-5.5947,-5.5949,-5.5951,-5.5872,-5.5867,-5.5863,-5.5859,-5.5984,-5.5992,-5.6,0,0,0,0,0,0,0,0,0,0,0,0,0,-5.5638,-5.5513,-5.582,-5.5799,-5.5799,-5.5947,-5.5949,-5.5951,-5.5873,-5.5867,-5.5862,-5.5857,-5.5981,-5.5991,-5.6001,-5.6176,0,0,-5.6032,-5.6037,0,0,0,0,0,0,0,0,-5.563,-5.565,-5.5801,-5.5801,-5.5801,-5.5888,-5.5884,-5.6026,-5.5874,-5.5845,-5.586,-5.5854,-5.5958,-5.597,-5.6005,-5.6182,-5.6187,-5.6033,-5.604,-5.6044,-5.6047,0,0,0,0,0,0,0,-5.5621,-5.5644,-5.5871,-5.5803,-5.5803,-5.5782,-5.5795,-5.591,-5.5931,-5.5847,-5.5841,-5.5858,-5.5957,-5.5996,-5.6008,-5.6189,-5.6033,-5.6042,-5.6048,-5.6052,-5.6512,-5.6517,0,0,0,0,0,0,-5.5614,-5.5636,-5.5867,-5.5874,-5.57,-5.5792,-5.5806,-5.5866,-5.5929,-5.5934,-5.5862,-5.5854,-5.5981,-5.5996,-5.6012,-5.6219,-5.6044,-5.6053,-5.6059,-5.6506,-5.6513,-5.652,0,0,0,0,0,0,-5.5608,-5.5636,-5.5861,-5.5754,-5.5781,-5.5804,-5.5871,-5.5871,-5.591,-5.5941,-5.5944,-5.5899,-5.5977,-5.5997,-5.6135,-5.6222,-5.6058,-5.6067,-5.6499,-5.6508,-5.6516,-5.6635,0,0,0,0,0,0,-5.5599,-5.5634,-5.5702,-5.5756,-5.5787,-5.5985,-5.5876,-5.5878,-5.5928,-5.5918,-5.5976,-5.598,-5.5974,-5.612,-5.6145,-5.6233,-5.6075,-5.6491,-5.6503,-5.6513,-5.6623,-5.6647,-5.6667,0,0,0,0,0,-5.5588,-5.573,-5.5706,-5.5734,-5.5873,-5.599,-5.6008,-5.5999,-5.5936,-5.6003,-5.6023,-5.5979,-5.6209,-5.6135,-5.6163,-5.6255,-5.6485,-5.6499,-5.6513,-5.6613,-5.6642,-5.6667,0,0,0,0,0,0,-5.5684,-5.5737,-5.571,-5.5874,-5.5929,-5.5977,-5.6061,-5.603,-5.6102,-5.609,-5.6074,-5.6088,-5.6232,-5.6257,-5.6174,-5.6425,-5.6337,-5.6357,-5.6404,-5.6432,-5.6453,-5.6444,-5.6084,0,0,0,0,0,-5.5724,-5.5817,-5.5857,-5.5997,-5.6026,-5.6039,-5.609,-5.6079,-5.6134,-5.6156,-5.6185,-5.6239,-5.6323,-5.6379,-5.6458,-5.6627,-5.6637,-5.6703,-5.6725,-5.6743,-5.676,-5.6849,-5.6878,-5.6564,-5.6564,-5.6564,0,0,-5.5808,-5.5848,-5.5907,-5.6018,-5.6058,-5.6152,-5.6059,-5.6163,-5.6232,-5.6171,-5.6303,-5.6327,-5.6385,-5.6539,-5.6608,-5.6564,-5.6849,-5.676,-5.6774,-5.6782,-5.6866,-5.6895,-5.6922,-5.6574,-5.6572,-5.6571,0,0,-5.6009,-5.605,-5.617,-5.6213,-5.6276,-5.6283,-5.6312,-5.6366,-5.6379,-5.6511,-5.6467,-5.6548,-5.6694,-5.6737,-5.6778,-5.6993,-5.6955,-5.7019,-5.7134,-5.722,-5.7245,-5.7267,-5.7342,-5.7369,-5.7036,-5.7037,-5.7037,0,-5.6105,-5.6247,-5.6236,-5.6343,-5.6392,-5.6342,-5.6462,-5.6504,-5.6589,-5.6623,-5.6573,-5.6754,-5.679,-5.6952,-5.7004,-5.704,-5.7071,-5.7013,-5.7243,-5.7264,-5.7284,-5.7356,-5.7384,-5.7044,-5.7043,-5.7042,-5.7042,0,-5.6361,-5.6459,-5.6549,-5.6633,-5.6692,-5.6805,-5.681,-5.687,-5.6853,-5.6866,-5.7,-5.7041,-5.7127,-5.7165,-5.7149,-5.7324,-5.7295,-5.7245,-5.7155,-5.7322,-5.7389,-5.7416,-5.7055,-5.7052,-5.705,-5.7048,0,0,-5.6626,-5.6702,-5.6735,-5.6772,-5.6837,-5.6912,-5.7022,-5.7107,-5.7158,-5.7218,-5.7309,-5.7433,-5.7386,-5.7432,-5.7421,-5.7497,-5.7663,-5.7437,-5.7438,-5.7476,-5.7856,-5.7893,-5.7925,-5.7638,-5.7643,-5.7647,-5.785,0,-5.6829,-5.7023,-5.7016,-5.7196,-5.7285,-5.7238,-5.7334,-5.7383,-5.7397,-5.7473,-5.7488,-5.7576,-5.7508,-5.7536,-5.7609,-5.7627,-5.7739,-5.7613,-5.772,-5.7724,-5.7706,-5.796,-5.8,-5.819,-5.7877,-5.7881,-5.7884,0,-5.7093,-5.7162,-5.7352,-5.7402,-5.7439,-5.7525,-5.7601,-5.7676,-5.773,-5.7734,-5.7786,-5.7762,-5.7871,-5.7779,-5.7928,-5.7842,-5.7885,-5.7901,-5.7908,-5.7917,-5.7814,-5.7974,-5.825,-5.8278,-5.7926,-5.7922,-5.7919,0,-5.7266,-5.7406,-5.7537,-5.757,-5.7632,-5.7694,-5.7722,-5.7771,-5.7822,-5.7888,-5.792,-5.7998,-5.804,-5.81,-5.8096,-5.803,-5.8247,-5.8155,-5.8252,-5.8252,-5.8299,-5.8296,-5.8585,-5.8329,-5.8329,-5.8328,-5.8328,0,-5.7493,-5.761,-5.7615,-5.7696,-5.7825,-5.7814,-5.7942,-5.7963,-5.8007,-5.8089,-5.8053,-5.813,-5.8122,-5.8199,-5.8197,-5.832,-5.8339,-5.8345,-5.8342,-5.8348,-5.8347,-5.8375,-5.8361,-5.8336,-5.8334,-5.8333,-5.8331,0,-5.7708,-5.7716,-5.7855,-5.7902,-5.7917,-5.801,-5.8049,-5.8124,-5.8135,-5.8239,-5.8263,-5.8279,-5.8369,-5.8371,-5.8474,-5.8472,-5.8621,-5.8605,-5.8603,-5.86,-5.8696,-5.8687,-5.9012,-5.9053,-5.8773,-5.8775,-5.8777,0,-5.7852,-5.7941,-5.7998,-5.8051,-5.8083,-5.8169,-5.8221,-5.8213,-5.8268,-5.8335,-5.8402,-5.8488,-5.8556,-5.8701,-5.872,-5.8798,-5.8782,-5.8891,-5.8794,-5.8795,-5.8782,-5.8777,-5.8784,-5.891,-5.8913,-5.8915,-5.8917,0,-5.8106,-5.8106,-5.8182,-5.8261,-5.8324,-5.8385,-5.8441,-5.8486,-5.8484,-5.8548,-5.8639,-5.8692,-5.8797,-5.8882,-5.8957,-5.8983,-5.895,-5.8948,-5.8974,-5.898,-5.8975,-5.8977,-5.8654,-5.894,-5.8938,-5.8936,-5.8935,-5.8934,-5.8289,-5.8365,-5.8417,-5.8503,-5.8544,-5.8598,-5.867,-5.869,-5.8766,-5.8851,-5.8842,-5.8943,-5.8992,-5.9089,-5.9123,-5.92,-5.9162,-5.9201,-5.9211,-5.922,-5.923,-5.8963,-5.9214,-5.9213,-5.9213,-5.9212,-5.9212,0,-5.854,-5.8571,-5.865,-5.873,-5.8798,-5.8761,-5.8821,-5.8879,-5.8969,-5.9019,-5.9087,-5.9191,-5.9273,-5.9299,-5.9378,-5.9435,-5.9421,-5.9455,-5.9451,-5.9457,-5.926,-5.9228,-5.9465,-5.9465,-5.9465,-5.9465,-5.9465,-5.9465,-5.8679,-5.8805,-5.8811,-5.8957,-5.8986,-5.9085,-5.9123,-5.9171,-5.921,-5.9328,-5.9396,-5.9413,-5.9452,-5.9534,-5.9607,-5.9612,-5.9642,-5.9683,-5.9682,-5.9497,-5.9471,-5.9447,-5.9417,-5.969,-5.969,-5.9872,-5.9874,-5.9875]}]]